Погода в Переделе

Россия / Калужская область     55°12′09″N   35°40′45″E
темп.,
°C
ветер,
м/с
пор.,
м/с
влажн.,
%
обл.,
%
осадки,
мм/ч
давл.,
гПа
погр.,
м
17 сентября, пт
пт1700:00+6с1263100 0.0 102155
03:00+6ссв1163100 0.0 102020
06:00+6ссв1264100 0.0 102058
09:00+7св2357100 0.0 1020764
12:00+10всв3346100 0.0 10191461
15:00+11всв334461 0.0 10191621
18:00+8всв4657100 0.0 1020811
21:00+4всв267594 0.0 1021123
18 сентября, сб
сб1800:00+2всв288227 0.0 1022176
03:00+1всв2982100 0.0 1022204
06:00+1всв398662 0.0 1023222
09:00+6в5106327 0.0 1023666
12:00+10в584588 0.0 10221283
15:00+12в584068 0.0 10211481
18:00+9в4951100 0.0 1020789
21:00+8в51259100 0.0 1021800
19 сентября, вс
вс1900:00+7в61364100 0.0 1020837
03:00+6в51367100 0.0 1020805
06:00+4в51485100 1.1 1019764
09:00+4в71693100 4.3 1019774
12:00+4в71794100 4.5 1018856
15:00+4в71695100 10.7 1017870
18:00+4в81695100 7.5 10171087
21:00+4всв71597100 10.9 10171051
20 сентября, пн
пн2000:00+4всв61496100 5.4 1016977
03:00+4всв61496100 6.9 1016834
06:00+4всв61495100 0.4 1016843
09:00+4всв61495100 0.6 1016885
12:00+4всв61496100 0.1 1016902
15:00+4всв61495100 0.1 1016896
18:00+4всв61495100 0.7 1016867
21:00+4всв51396100 3.3 1016839
21 сентября, вт
вт2100:00+4всв51296100 3.3 1015757
03:00+5всв51197100 6.4 1014647
06:00+5всв41098100 0.6 1013591
09:00+5всв3998100 3.1 1012537
12:00+6в3798100 0.9 1012503
15:00+8вюв2794100 1.1 1012586
18:00+7вюв2696100 0.3 1011310
21:00+7юв2699100 0.7 1012355